Ketchikan, AK

3:39 AM AKST on January 21, 2019 (GMT -0900)
Ketchikan International

Weather History for PAKT - December, 2018

Change the Weather History Date:

Wednesday, December 26, 2018

  Actual Average Record
Temperature  
Mean Temperature 39 °F -  
Max Temperature 43 °F 41 °F 49 °F (1959)
Min Temperature 35 °F 33 °F 7 °F (1955)
Degree Days  
Heating Degree Days 26    
Moisture  
Dew Point 36 °F    
Average Humidity 89    
Maximum Humidity 96    
Minimum Humidity 82    
Precipitation  
Precipitation 0.08 in - - ()
Sea Level Pressure  
Sea Level Pressure 29.82 in    
Wind  
Wind Speed 12 mph (SSE)    
Max Wind Speed 21 mph    
Max Gust Speed 30 mph    
Visibility 9 miles    
Events Rain    
Averages and records for this station are not official NWS values.
T = Trace of Precipitation, MM = Missing Value Source: NWS Daily Summary

Daily Weather History Graph

Daily Weather History Graph

Search for Another Location

Airport or City:

Astronomy

Dec. 26, 2018 Rise Set
Actual Time 8:14 AM AKST 3:21 PM AKST
Civil Twilight 7:27 AM AKST 4:07 PM AKST
Nautical Twilight 6:39 AM AKST 4:55 PM AKST
Astronomical Twilight 5:54 AM AKST 5:40 PM AKST
Moon 8:53 PM AKST (12/26) 11:04 AM AKST (12/26)
Length of Visible Light 8h 39m
Length of Day
7h 07m
Waning Gibbous, 77% of the Moon is Illuminated
Dec 26
Waning Gibbous
Dec 29
Last Quarter
Jan 5
New
Jan 13
First Quarter
Jan 20
Full

Hourly Weather History & Observations

Time (AKST) Temp. Windchill Dew Point Humidity Pressure Visibility Wind Dir Wind Speed Gust Speed Precip Events Conditions
12:48 AM 37.4 °F 30.3 °F 33.8 °F 87% 29.67 in 10.0 mi South 10.4 mph - 0.00 in Rain Light Rain
12:53 AM 37.0 °F 29.3 °F 34.0 °F 89% 29.67 in 10.0 mi South 11.5 mph 19.6 mph 0.00 in Rain Light Rain
1:53 AM 37.9 °F 30.0 °F 34.0 °F 86% 29.68 in 10.0 mi SSE 12.7 mph 19.6 mph 0.01 in Rain Light Rain
2:12 AM 37.9 °F 30.0 °F 34.0 °F 86% 29.69 in 10.0 mi SSE 12.7 mph - 0.00 in Rain Light Rain
2:51 AM 37.4 °F 28.9 °F 33.8 °F 87% 29.69 in 10.0 mi SSE 13.8 mph 21.9 mph 0.00 in Rain Light Rain
2:53 AM 39.0 °F 30.6 °F 34.0 °F 82% 29.69 in 10.0 mi SSE 15.0 mph 21.9 mph 0.00 in   Overcast
3:39 AM 37.9 °F 30.0 °F 34.0 °F 86% 29.70 in 10.0 mi SSE 12.7 mph 20.7 mph 0.00 in   Overcast
3:53 AM 37.9 °F 29.6 °F 34.0 °F 86% 29.70 in 10.0 mi SSE 13.8 mph 21.9 mph 0.00 in   Overcast
4:28 AM 37.9 °F 29.6 °F 34.0 °F 86% 29.70 in 10.0 mi SSE 13.8 mph 25.3 mph 0.00 in Rain Light Rain
4:53 AM 37.9 °F 30.5 °F 34.0 °F 86% 29.71 in 10.0 mi SSE 11.5 mph - 0.00 in Rain Light Rain
5:53 AM 36.0 °F 31.1 °F 34.0 °F 93% 29.74 in 3.0 mi Variable 5.8 mph 17.3 mph 0.06 in Rain Light Rain
6:11 AM 35.6 °F 28.0 °F 33.8 °F 93% 29.73 in 8.0 mi SSE 10.4 mph - N/A Rain Light Rain
6:53 AM 37.4 °F 30.8 °F 33.8 °F 87% 29.74 in 10.0 mi South 9.2 mph - N/A   Overcast
7:53 AM 37.4 °F 32.1 °F 33.8 °F 87% 29.76 in 10.0 mi South 6.9 mph - N/A   Overcast
8:53 AM 37.4 °F 30.3 °F 35.6 °F 93% 29.78 in 10.0 mi South 10.4 mph 18.4 mph N/A   Overcast
9:53 AM 39.2 °F 31.6 °F 35.6 °F 87% 29.78 in 10.0 mi SSE 12.7 mph - N/A   Overcast
10:53 AM 39.2 °F 30.8 °F 35.6 °F 87% 29.79 in 10.0 mi SSE 15.0 mph 24.2 mph N/A Rain Light Rain
11:53 AM 39.2 °F 31.6 °F 35.6 °F 87% 29.81 in 10.0 mi SSE 12.7 mph - N/A Rain Light Rain
12:53 PM 39.2 °F 30.5 °F 37.4 °F 93% 29.82 in 8.0 mi SE 16.1 mph 24.2 mph N/A Rain Rain
1:53 PM 39.2 °F 32.0 °F 37.4 °F 93% 29.82 in 7.0 mi SSE 11.5 mph 21.9 mph N/A Rain Light Rain
2:53 PM 41.0 °F 31.6 °F 37.4 °F 87% 29.83 in 9.0 mi SE 20.7 mph 29.9 mph N/A   Overcast
3:53 PM 41.0 °F 33.1 °F 39.2 °F 93% 29.86 in 5.0 mi SSE 15.0 mph - N/A Rain Rain
4:51 PM 39.2 °F 30.2 °F 37.4 °F 93% 29.87 in 7.0 mi SE 17.3 mph 24.2 mph 0.11 in Rain Light Rain
4:53 PM 39.2 °F 29.3 °F 37.4 °F 93% 29.87 in 7.0 mi ESE 20.7 mph 24.2 mph N/A Rain Light Rain
5:53 PM 39.2 °F 33.6 °F 37.4 °F 93% 29.89 in 6.0 mi SSE 8.1 mph - N/A Rain Light Rain
6:53 PM 41.0 °F 33.1 °F 37.4 °F 87% 29.91 in 9.0 mi SE 15.0 mph - N/A Rain Light Rain
7:53 PM 41.0 °F 34.3 °F 39.9 °F 96% 29.94 in 8.0 mi SE 11.5 mph - 0.00 in Rain Light Rain
8:53 PM 42.1 °F 36.1 °F 39.9 °F 92% 29.96 in 10.0 mi SE 10.4 mph - 0.01 in   Overcast
9:14 PM 42.1 °F 36.1 °F 39.9 °F 92% 29.97 in 10.0 mi SE 10.4 mph - N/A   Overcast
9:53 PM 43.0 °F 37.7 °F 39.9 °F 89% 29.99 in 10.0 mi SE 9.2 mph - N/A   Overcast
10:53 PM 43.0 °F 38.8 °F 39.9 °F 89% 30.01 in 10.0 mi SSE 6.9 mph - N/A   Overcast
11:00 PM 43.0 °F 37.7 °F 39.9 °F 89% 30.00 in 10.0 mi SE 9.2 mph - N/A   Overcast
11:21 PM 43.0 °F 38.2 °F 39.9 °F 89% 30.01 in 10.0 mi SE 8.1 mph - N/A   Overcast
11:43 PM 43.0 °F 37.7 °F 39.0 °F 86% 30.02 in 10.0 mi SE 9.2 mph - N/A   Overcast
11:53 PM 43.0 °F 37.2 °F 39.0 °F 86% 30.03 in 10.0 mi SE 10.4 mph - N/A   Overcast